Location: Usti nad Labem
(50.6670°N, 14.0330°E)
Time: 08:24:31
(UTC+02:00)

ISS - Visible Passes

Search period start: 22 October 2014 00:00
Search period end: 31 October 2014 23:00
Orbit: 413 x 416 km, 51.6° (Epoch: 21 October)

Date Brightness Start Highest point End Pass type
(mag) Time Alt. Az. Time Alt. Az. Time Alt. Az.
22 Oct -2.6 19:28:39 10° W 19:31:55 50° SSW 19:33:30 26° SE visible
23 Oct -3.0 18:39:32 10° WNW 18:42:52 69° SSW 18:46:12 10° ESE visible
23 Oct -1.0 20:16:44 10° W 20:19:09 19° SW 20:19:25 19° SSW visible
24 Oct -1.4 19:27:18 10° W 19:30:11 27° SSW 19:32:33 13° SSE visible
25 Oct -2.0 18:37:59 10° W 18:41:08 39° SSW 18:44:16 10° SE visible
26 Oct -0.4 18:26:22 10° WSW 18:28:08 14° SW 18:29:55 10° S visible
27 Oct -0.7 17:36:33 10° W 17:39:06 21° SW 17:41:39 10° SSE visible
